Voltar ao catálogo

FENGYUN 1C DEB

AtivoPO
NORAD 36162·DEBRIS·🇨🇳 China

Lançado May 10, 1999 de Taiyuan Satellite Launch Center

Loading…

Próximas Passagens (próximas 24 horas)

TLE

EnvelhecendoSource: Space-Track

Época: Sep 7, 2026, 02:38 UTC

1 36162U 99025DSK 26250.11015094  .00002350  00000-0  11146-2 0  9994
2 36162  97.6216  10.9096 0246267  66.5184 296.1663 14.05562156742880

Acompanhe FENGYUN 1C DEB em tempo real com AllMySat

Download on the App Store